Regional Weather Roundup
Issued by NWS

Home | Current Version | Previous Version | Graphics & Text | Print | Product List | Glossary On
Versions: 1 2 3 4 5 6 7 8 9 10 11 12 13 14 15 16 17 18 19 20 21 22 23 24 25 26 27 28 29 30 31 32 33 34 35 36 37 38 39 40 41 42 43 44 45 46 47 48 49 50
000
ASUS43 KOAX 202010
RWRNE

WEATHER ROUNDUP FOR NEBRASKA
NATIONAL WEATHER SERVICE OMAHA NE
200 PM CST MON FEB 20 2017

NOTES: SATELLITE DATA IS BEING USED TO AUGMENT CLOUD COVER ABOVE
       12000 FEET.
       "FAIR" INDICATES FEW OR NO CLOUDS BELOW 12,000 FEET WITH NO
       SIGNIFICANT WEATHER AND/OR OBSTRUCTIONS TO VISIBILITY.

  * THESE STATIONS DO NOT REPORT WEATHER SUCH AS RAIN...SNOW OR FOG.

NEZ001>004-019>022-054>056-202100-
NEBRASKA PANHANDLE

CITY           SKY/WX    TMP DP  RH WIND       PRES   REMARKS
SCOTTSBLUFF    SUNNY     61  15  16 NW16G23   29.94S
ALLIANCE       SUNNY     58  14  17 NW20      29.89F
CHADRON        SUNNY     59  21  23 W18       29.89S
KIMBALL        SUNNY     58  22  24 NW20G25   29.96F
SIDNEY         SUNNY     59  11  15 NW20G29   29.95R
$$

NEZ057>060-069>072-079>082-202100-
SOUTHWEST NEBRASKA

CITY           SKY/WX    TMP DP  RH WIND       PRES   REMARKS
NORTH PLATTE   SUNNY     62  33  33 NW17G28   29.86F
IMPERIAL       SUNNY     61  25  25 N20       29.90F
LEXINGTON      SUNNY     61  35  38 NW28G33   29.84F
MCCOOK         MOSUNNY   64  34  32 NW20G31   29.86F
OGALLALA       SUNNY     62  27  27 N16G23    29.89F
$$

NEZ005>010-023>029-035>040-094-202100-
NORTH CENTRAL NEBRASKA

CITY           SKY/WX    TMP DP  RH WIND       PRES   REMARKS
VALENTINE      SUNNY     60  29  30 N22       29.82S
AINSWORTH      SUNNY     58  34  40 NW21G30   29.82S
BROKEN BOW     SUNNY     59  37  44 N26       29.83F
O`NEILL        PTSUNNY   53  44  71 NW20G26   29.81R
ORD            MOSUNNY   57  39  51 NW24G31   29.80R
THEDFORD       SUNNY     60  35  38 NW18G26   29.85S
$$

NEZ041-046>049-061>064-073>077-083>087-202100-
SOUTH CENTRAL NEBRASKA

CITY           SKY/WX    TMP DP  RH WIND       PRES   REMARKS
GRAND ISLAND   MOSUNNY   63  43  48 N22G31    29.79R
AURORA         SUNNY     64  42  44 N21G28    29.77F
HASTINGS       SUNNY     64  41  42 N25G32    29.80R
HEBRON         CLOUDY    64  46  51 W7        29.77F
HOLDREGE       SUNNY     60  37  41 N21G28    29.82S
KEARNEY *      SUNNY     61  37  41 N24G33    29.81F
YORK           CLOUDY    61  45  55 NW20G28   29.76S
$$

NEZ011>018-030>034-042>045-202100-
NORTHEAST NEBRASKA

CITY           SKY/WX    TMP DP  RH WIND       PRES   REMARKS
NORFOLK        CLOUDY    56  40  55 NW21G28   29.76R
ALBION         MOSUNNY   61  42  48 NW20G29   29.78R
BLAIR          CLOUDY    60  57  89 S14       29.74S
FREMONT        CLOUDY    60  56  86 SW6       29.75R
TEKAMAH        CLOUDY    60  56  86 S12       29.74R
WAYNE          CLOUDY    54  44  68 NW12      29.76R
$$

NEZ050>053-065>068-078-088>093-202100-
SOUTHEAST NEBRASKA

CITY           SKY/WX    TMP DP  RH WIND       PRES   REMARKS
LINCOLN        CLOUDY    62  54  74 SW12      29.76R
OMAHA EPPLEY   CLOUDY    61  56  83 S6        29.74F
BEATRICE       CLOUDY    62  55  77 SW13      29.77R
FALLS CITY     CLOUDY    62  57  83 SW10      29.77S
NEBRASKA CITY  CLOUDY    60  58  95 SW8       29.75F
PLATTSMOUTH    CLOUDY    60  55  83 S12       29.75F
$$

NEZ044-045-051>053-067-202100-
OMAHA AREA

CITY           SKY/WX    TMP DP  RH WIND       PRES   REMARKS
OMAHA EPPLEY   CLOUDY    61  56  83 S6        29.74F
BLAIR          CLOUDY    60  57  89 S14       29.74S
FREMONT        CLOUDY    60  56  86 SW6       29.75R
MILLARD        CLOUDY    63  58  85 S3        29.75R
OFFUTT AFB     CLOUDY   102 N/A N/A SW8       29.75S
PLATTSMOUTH    CLOUDY    60  55  83 S12       29.75F
WAHOO          CLOUDY    60  56  84 SW8       29.75R
$$



USA.gov is the U.S. government's official web portal to all federal, state and local government web resources and services.